Weather History for Haines, AK

Change the Weather History Date:

Tuesday, May 21, 2013

  Actual Average Record
Temperature  
Mean Temperature 48 °F -  
Max Temperature 60 °F 56 °F 72 °F (2004)
Min Temperature 36 °F 41 °F 34 °F (1974)
Degree Days  
Heating Degree Days 17    
Moisture  
Dew Point 22 °F    
Average Humidity 34    
Maximum Humidity 62    
Minimum Humidity 24    
Precipitation  
Precipitation 0.00 in - - ()
Sea Level Pressure  
Sea Level Pressure 30.35 in    
Wind  
Wind Speed 12 mph (WNW)    
Max Wind Speed 20 mph    
Max Gust Speed 25 mph    
Visibility 10 miles    
Events      
Averages and records for this station are not official NWS values.
T = Trace of Precipitation, MM = Missing Value Source: NWS Daily Summary

Daily Weather History Graph

Daily Weather History Graph

Search for Another Location

Airport:

Trip Planner

Search our weather history database for the weather conditions in past years. The results will help you decide how hot, cold, wet, or windy it might be!

Date:

Astronomy

May. 21, 2013 Rise Set
Actual Time 4:16 AM AKDT 9:42 PM AKDT
Civil Twilight 3:10 AM AKDT 10:48 PM AKDT
Nautical Twilight 1:31 AM AKDT 12:26 AM AKDT
Astronomical Twilight Sun does not rise Sun does not rise
Moon 5:14 PM AKDT (5/21) 2:49 AM AKDT (5/21)
Length of Visible Light 19h 38m
Length of Day
17h 26m
Waxing Gibbous, 85% of the Moon is Illuminated
May 21
Waxing Gibbous
May 24
Full
May 31
Last Quarter
Jun 8
New
Jun 16
First Quarter

Hourly Weather History & Observations

Time (AKDT) Temp. Windchill Dew Point Humidity Pressure Visibility Wind Dir Wind Speed Gust Speed Precip Events Conditions
12:54 AM 41.0 °F 35.2 °F 21.0 °F 45% 30.51 in 10.0 mi NW 9.2 mph - N/A   Clear
1:54 AM 41.0 °F 34.3 °F 19.9 °F 43% 30.50 in 10.0 mi NW 11.5 mph - N/A   Clear
2:54 AM 42.1 °F 36.1 °F 19.0 °F 40% 30.49 in 10.0 mi NW 10.4 mph - N/A   Clear
3:54 AM 37.9 °F 29.6 °F 21.9 °F 53% 30.49 in 10.0 mi WNW 13.8 mph - N/A   Clear
4:54 AM 36.0 °F 27.5 °F 24.1 °F 62% 30.49 in 10.0 mi WNW 12.7 mph - N/A   Clear
5:54 AM 41.0 °F 34.7 °F 19.9 °F 43% 30.48 in 10.0 mi NW 10.4 mph 18.4 mph N/A   Clear
6:54 AM 42.1 °F 35.7 °F 19.0 °F 40% 30.48 in 10.0 mi NNW 11.5 mph - N/A   Clear
7:54 AM 43.0 °F 37.7 °F 21.0 °F 42% 30.47 in 10.0 mi NW 9.2 mph - N/A   Clear
8:54 AM 48.0 °F - 21.0 °F 34% 30.45 in 10.0 mi WNW 11.5 mph - N/A   Clear
9:54 AM 51.1 °F - 24.1 °F 35% 30.43 in 10.0 mi West 16.1 mph - N/A   Clear
10:54 AM 54.0 °F - 23.0 °F 30% 30.40 in 10.0 mi West 9.2 mph - N/A   Clear
11:54 AM 54.0 °F - 21.0 °F 28% 30.38 in 10.0 mi SW 10.4 mph - N/A   Clear
12:54 PM 55.9 °F - 23.0 °F 28% 30.35 in 10.0 mi WSW 11.5 mph 19.6 mph N/A   Clear
1:54 PM 57.0 °F - 21.9 °F 26% 30.33 in 10.0 mi West 13.8 mph 19.6 mph N/A   Clear
2:54 PM 57.9 °F - 23.0 °F 26% 30.31 in 10.0 mi West 9.2 mph 17.3 mph N/A   Clear
3:54 PM 59.0 °F - 21.9 °F 24% 30.28 in 10.0 mi West 9.2 mph 21.9 mph N/A   Clear
4:54 PM 60.1 °F - 24.1 °F 25% 30.25 in 10.0 mi WNW 19.6 mph 24.2 mph N/A   Clear
5:54 PM 60.1 °F - 25.0 °F 26% 30.23 in 10.0 mi West 16.1 mph 21.9 mph N/A   Clear
6:54 PM 59.0 °F - 21.9 °F 24% 30.22 in 10.0 mi WNW 13.8 mph 21.9 mph N/A   Clear
7:54 PM 57.0 °F - 21.9 °F 26% 30.21 in 10.0 mi NW 11.5 mph 20.7 mph N/A   Clear
8:54 PM 55.0 °F - 21.0 °F 27% 30.21 in 10.0 mi NW 11.5 mph - N/A   Clear
9:54 PM 54.0 °F - 21.0 °F 28% 30.19 in 10.0 mi NW 11.5 mph - N/A   Clear
10:54 PM 53.1 °F - 21.0 °F 29% 30.18 in 10.0 mi NW 17.3 mph 25.3 mph N/A   Clear
11:54 PM 52.0 °F - 21.9 °F 31% 30.18 in 10.0 mi NW 11.5 mph 21.9 mph N/A   Clear